Location: West Cummington
(42.4920°N, 72.9680°W)
Time: 08:15:37
(UTC-05:00)

ATLAS 2AS CENTAUR R/B - Visible Passes

Search period start: 23 November 2014 00:00
Search period end: 03 December 2014 00:00
Orbit: 915 x 1297 km, 63.7° (Epoch: 18 November)

Date Brightness Start Highest point End Pass type
(mag) Time Alt. Az. Time Alt. Az. Time Alt. Az.
23 Nov 4.6 17:21:27 10° WNW 17:27:13 23° NNW 17:33:16 10° NNE visible
23 Nov 4.8 19:17:10 10° NNW 19:21:34 15° N 19:22:35 15° N visible
23 Nov 5.4 21:09:17 10° NNW 21:10:01 12° NNW 21:10:01 12° NNW visible
24 Nov 4.9 18:31:20 10° NW 18:35:47 16° N 18:39:14 12° NNE visible
24 Nov 5.0 20:24:30 10° NNW 20:26:40 16° N 20:26:40 16° N visible
25 Nov 4.8 17:45:13 10° NW 17:50:03 17° NNW 17:55:03 10° NNE visible
25 Nov 4.8 19:39:33 10° NNW 19:43:20 17° N 19:43:20 17° N visible
25 Nov 5.5 21:30:40 10° NNW 21:30:46 10° NNW 21:30:46 10° NNW visible
26 Nov 4.7 16:59:00 10° WNW 17:04:25 20° NNW 17:10:02 10° NNE visible
26 Nov 4.8 18:54:19 10° NNW 18:58:53 16° N 19:00:00 16° NNE visible
26 Nov 5.2 20:45:59 10° NNW 20:47:26 15° NNW 20:47:26 15° NNW visible
27 Nov 4.8 18:08:44 10° NW 18:13:07 15° N 18:16:40 12° NNE visible
27 Nov 4.8 20:01:15 10° NNW 20:04:06 18° N 20:04:06 18° N visible
28 Nov 4.8 17:22:45 10° NW 17:27:21 16° N 17:32:02 10° NNE visible
28 Nov 4.7 19:16:24 10° NNW 19:20:48 19° N 19:20:48 19° N visible
28 Nov 5.3 21:07:20 10° NNW 21:08:14 14° NNW 21:08:14 14° NNW visible
29 Nov 4.6 18:31:21 10° NNW 18:36:12 17° NNE 18:37:30 16° NNE visible
29 Nov 4.9 20:22:39 10° NNW 20:24:57 19° NNW 20:24:57 19° NNW visible
30 Nov 4.8 17:45:59 10° NNW 17:50:26 16° N 17:54:14 11° NNE visible
30 Nov 4.6 19:37:57 10° NNW 19:41:40 22° N 19:41:40 22° N visible
30 Nov 5.5 21:28:45 10° NW 21:29:07 12° NW 21:29:07 12° NW visible
01 Dec 4.8 17:00:14 10° NW 17:04:39 16° N 17:09:10 10° NNE visible
01 Dec 4.4 18:53:11 10° NNW 18:58:25 21° NNE 18:58:25 21° NNE visible
01 Dec 5.0 20:44:01 10° NNW 20:45:52 18° NNW 20:45:52 18° NNW visible
02 Dec 4.5 18:08:16 10° NNW 18:13:28 18° NNE 18:15:12 17° NNE visible
02 Dec 4.5 19:59:19 10° NNW 20:02:39 25° NNW 20:02:39 25° NNW visible
